Regional Weather Roundup
Issued by NWS

Home | Current Version | Previous Version | Text Only | Print | Product List | Glossary Off
Versions: 1 2 3 4 5 6 7 8 9 10 11 12 13 14 15 16 17 18 19 20 21 22 23 24 25 26 27

000
ASUS45 KCYS 291610
RWRWY

WYOMING REGIONAL WEATHER ROUNDUP
NATIONAL WEATHER SERVICE CHEYENNE WY
1000 AM MDT SAT APR 29 2017

NOTE:  "FAIR" INDICATES FEW OR NO CLOUDS BELOW 12,000 FEET
WITH NO SIGNIFICANT WEATHER AND/OR OBSTRUCTIONS TO VISIBILITY.

WYZ001-291700-
YELLOWSTONE NATIONAL PARK

CITY           SKY/WX    TMP DP  RH WIND       PRES   REMARKS
LK YELLOWSTONE   N/A     27  16  63 CALM      30.22S
W YELLOWSTONE  NOT AVBL

$$
WYZ002>013-054>058-071-098>099-291700-
NORTHERN WYOMING

CITY           SKY/WX    TMP DP  RH WIND       PRES   REMARKS
JACKSON        SUNNY     36  21  55 N8        30.21R WCI  29
CODY           PTSUNNY   38  27  64 CALM      30.26S
GREYBULL       PTSUNNY   44  32  62 CALM      30.26S
WORLAND        FAIR      41  33  73 MISG      30.27R
SHERIDAN       FAIR      35  26  69 SW3       30.28R
BUFFALO        FAIR      36  22  56 S6        30.27S WCI  31
GILLETTE       FAIR      32  27  81 S5        30.28R WCI  27
HULETT         FAIR      43  21  42 CALM      30.29S
NEWCASTLE      FAIR      41  19  42 S9G16     30.28F

$$
WYZ014>020-022>026-101>103-291700-
CENTRAL WYOMING

CITY           SKY/WX    TMP DP  RH WIND       PRES   REMARKS
BIG PINEY      FAIR      32  20  61 SW9       30.21S WCI  24
PINEDALE       FAIR      32  19  59 N5        30.21S WCI  27
DUBOIS         CLOUDY    28  21  74 CALM      30.21S
LANDER         CLOUDY    31  26  82 E8        30.26R WCI  23
RIVERTON       FAIR      29  27  92 S5        30.28R WCI  24
CASPER         FAIR      35  24  64 NE8       30.26S WCI  29
DOUGLAS        CLOUDY    28  27  96 CALM      30.28S

$$
WYZ021-027>030-104>119-291700-
SOUTHERN WYOMING

CITY           SKY/WX    TMP DP  RH WIND       PRES   REMARKS
EVANSTON       PTSUNNY   28  20  71 NE10      30.20R WCI  19
FORT BRIDGER   CLOUDY    30  23  74 E9        30.26R WCI  21
ROCK SPRINGS   PTSUNNY   33  22  63 NE18G26   30.21R WCI  22
DIXON            N/A     37  17  44 E15G23    30.13R WCI  28
RAWLINS        CLOUDY    30  20  66 NE17G25   30.19R WCI  18
SARATOGA       FAIR      32  21  64 NE16G23   30.15S WCI  21
LARAMIE        CLOUDY    25  18  74 NE10      30.15R WCI  15
CHEYENNE       CLOUDY    28  24  85 N10       30.18S WCI  19
TORRINGTON     CLOUDY    34  27  75 N13       30.25S WCI  25
PINE BLUFFS    CLOUDY    32  30  93 N15       30.21R WCI  22

$$




USA.gov is the U.S. government's official web portal to all federal, state and local government web resources and services.